• In India
  • List of Countries
  • For 7 days
  • Water Temperature
  • Satellite Maps
  • Weather Map
  • Weather Widgets
  • user-avatar
    Login

    Hourly Weather Piersno

    Today, 22 July, Sunday

    Time Temperature Precipitation Wind Pressure Humidity
    00:00 +19°C° 0 mm 1 mps 744 mmHg 74%
    01:00 +19°C° 0 mm 1 mps 744 mmHg 77%
    02:00 +19°C° 0 mm 1 mps 744 mmHg 78%
    03:00 +18°C° 0 mm 1 mps 743 mmHg 79%
    04:00 +18°C° 0 mm 1 mps 743 mmHg 81%
    05:00 +19°C° 0 mm 1 mps 744 mmHg 77%
    06:00 +20°C° 0 mm 1 mps 744 mmHg 73%
    07:00 +20°C° 0 mm 2 mps 744 mmHg 69%
    08:00 +23°C° 0 mm 2 mps 744 mmHg 64%
    09:00 +24°C° 0 mm 2 mps 744 mmHg 58%
    10:00 +26°C° 0 mm 3 mps 744 mmHg 53%
    11:00 +27°C° 0 mm 3 mps 744 mmHg 50%
    12:00 +27°C° 0 mm 3 mps 744 mmHg 47%
    13:00 +28°C° 0 mm 3 mps 744 mmHg 44%
    14:00 +28°C° 0 mm 3 mps 744 mmHg 44%
    15:00 +28°C° 0 mm 3 mps 744 mmHg 45%
    16:00 +28°C° 0 mm 3 mps 744 mmHg 45%
    17:00 +27°C° 0 mm 3 mps 744 mmHg 52%
    18:00 +25°C° 0 mm 2 mps 744 mmHg 58%
    19:00 +24°C° 0 mm 2 mps 744 mmHg 65%
    20:00 +23°C° 0 mm 2 mps 744 mmHg 69%
    21:00 +21°C° 0 mm 2 mps 744 mmHg 72%
    22:00 +19°C° 0 mm 2 mps 744 mmHg 76%
    23:00 +19°C° 0 mm 2 mps 745 mmHg 77%

    Tomorrow, 23 July, Monday

    Time Temperature Precipitation Wind Pressure Humidity
    00:00 +19°C° 0 mm 2 mps 745 mmHg 78%
    01:00 +18°C° 0 mm 2 mps 745 mmHg 78%
    02:00 +18°C° 0 mm 2 mps 745 mmHg 79%
    03:00 +18°C° 0 mm 2 mps 745 mmHg 80%
    04:00 +18°C° 0 mm 2 mps 745 mmHg 81%
    05:00 +19°C° 0 mm 2 mps 745 mmHg 78%
    06:00 +20°C° 0 mm 2 mps 746 mmHg 75%
    07:00 +21°C° 0 mm 2 mps 746 mmHg 73%
    08:00 +24°C° 0 mm 3 mps 746 mmHg 67%
    09:00 +25°C° 0 mm 3 mps 746 mmHg 62%
    10:00 +27°C° 0 mm 3 mps 746 mmHg 56%
    11:00 +27°C° 0 mm 3 mps 746 mmHg 53%
    12:00 +28°C° 0 mm 3 mps 746 mmHg 50%
    13:00 +29°C° 0 mm 3 mps 746 mmHg 47%
    14:00 +29°C° 0 mm 4 mps 746 mmHg 48%
    15:00 +29°C° 0 mm 4 mps 746 mmHg 48%
    16:00 +29°C° 0 mm 4 mps 746 mmHg 49%
    17:00 +28°C° 0 mm 3 mps 746 mmHg 55%
    18:00 +26°C° 0 mm 3 mps 746 mmHg 60%
    19:00 +25°C° 0 mm 2 mps 746 mmHg 65%
    20:00 +24°C° 0 mm 2 mps 746 mmHg 68%
    21:00 +23°C° 0 mm 2 mps 747 mmHg 70%
    22:00 +22°C° 0 mm 1 mps 747 mmHg 73%
    23:00 +20°C° 0 mm 2 mps 747 mmHg 77%

    Day after tomorrow, 24 July, Tuesday

    Time Temperature Precipitation Wind Pressure Humidity
    00:00 +19°C° 0 mm 2 mps 747 mmHg 81%
    01:00 +18°C° 0 mm 2 mps 747 mmHg 85%
    02:00 +18°C° 0 mm 2 mps 747 mmHg 87%
    03:00 +18°C° 0 mm 2 mps 747 mmHg 89%
    04:00 +17°C° 0 mm 2 mps 747 mmHg 92%
    05:00 +18°C° 0 mm 2 mps 747 mmHg 87%
    06:00 +20°C° 0 mm 2 mps 747 mmHg 82%
    07:00 +21°C° 0 mm 2 mps 748 mmHg 77%
    08:00 +22°C° 0 mm 3 mps 748 mmHg 71%
    09:00 +25°C° 0 mm 3 mps 747 mmHg 64%
    10:00 +26°C° 0 mm 3 mps 747 mmHg 57%
    11:00 +27°C° 0 mm 3 mps 747 mmHg 54%
    12:00 +28°C° 0 mm 3 mps 747 mmHg 51%
    13:00 +29°C° 0 mm 3 mps 746 mmHg 48%
    14:00 +29°C° 0 mm 3 mps 746 mmHg 47%
    15:00 +29°C° 0 mm 3 mps 746 mmHg 47%
    16:00 +29°C° 0 mm 3 mps 746 mmHg 46%
    17:00 +28°C° 0 mm 3 mps 746 mmHg 52%
    18:00 +27°C° 0 mm 2 mps 746 mmHg 58%
    19:00 +25°C° 0 mm 2 mps 745 mmHg 64%
    20:00 +24°C° 0 mm 1 mps 746 mmHg 68%
    21:00 +23°C° 0 mm 1 mps 746 mmHg 71%
    22:00 +21°C° 0 mm 1 mps 746 mmHg 75%
    23:00 +21°C° 0 mm 1 mps 746 mmHg 78%

    25 July, Wednesday

    Time Temperature Precipitation Wind Pressure Humidity
    00:00 +21°C° 0 mm 1 mps 746 mmHg 80%
    01:00 +20°C° 0 mm 1 mps 746 mmHg 83%
    02:00 +20°C° 0 mm 1 mps 746 mmHg 85%
    03:00 +19°C° 0 mm 1 mps 746 mmHg 88%
    04:00 +19°C° 0 mm 1 mps 746 mmHg 91%
    05:00 +19°C° 0 mm 2 mps 746 mmHg 87%
    06:00 +21°C° 0 mm 2 mps 746 mmHg 83%
    07:00 +23°C° 0 mm 2 mps 746 mmHg 80%
    08:00 +24°C° 0.6 mm 2 mps 746 mmHg 74%
    09:00 +26°C° 0.6 mm 3 mps 746 mmHg 69%
    10:00 +27°C° 0.6 mm 3 mps 746 mmHg 64%
    11:00 +27°C° 0.3 mm 3 mps 746 mmHg 60%
    12:00 +28°C° 0.3 mm 3 mps 746 mmHg 56%
    13:00 +29°C° 0.3 mm 3 mps 745 mmHg 52%
    14:00 +29°C° 0 mm 3 mps 745 mmHg 52%
    15:00 +29°C° 0 mm 3 mps 745 mmHg 51%
    16:00 +29°C° 0 mm 3 mps 745 mmHg 51%
    17:00 +28°C° 0 mm 3 mps 745 mmHg 56%
    18:00 +27°C° 0 mm 2 mps 745 mmHg 60%
    19:00 +26°C° 0 mm 2 mps 745 mmHg 65%
    20:00 +24°C° 0 mm 1 mps 745 mmHg 67%
    21:00 +23°C° 0 mm 1 mps 745 mmHg 70%
    22:00 +22°C° 0 mm 1 mps 745 mmHg 72%
    23:00 +21°C° 0 mm 1 mps 746 mmHg 74%

    26 July, Thursday

    Time Temperature Precipitation Wind Pressure Humidity
    00:00 +21°C° 0 mm 1 mps 746 mmHg 76%
    01:00 +20°C° 0 mm 1 mps 746 mmHg 78%
    02:00 +20°C° 0 mm 1 mps 746 mmHg 81%
    03:00 +20°C° 0 mm 1 mps 746 mmHg 83%
    04:00 +19°C° 0 mm 1 mps 746 mmHg 85%
    05:00 +21°C° 0 mm 1 mps 746 mmHg 81%
    06:00 +22°C° 0 mm 1 mps 746 mmHg 76%
    07:00 +23°C° 0 mm 1 mps 746 mmHg 72%
    08:00 +25°C° 0 mm 2 mps 746 mmHg 67%
    09:00 +26°C° 0 mm 2 mps 747 mmHg 61%
    10:00 +27°C° 0 mm 3 mps 747 mmHg 56%
    11:00 +28°C° 0 mm 3 mps 746 mmHg 52%
    12:00 +29°C° 0 mm 3 mps 746 mmHg 48%
    13:00 +30°C° 0 mm 3 mps 746 mmHg 45%
    14:00 +30°C° 0 mm 4 mps 746 mmHg 44%
    15:00 +30°C° 0 mm 4 mps 746 mmHg 44%
    16:00 +30°C° 0 mm 4 mps 746 mmHg 44%
    17:00 +29°C° 0 mm 3 mps 746 mmHg 49%
    18:00 +27°C° 0 mm 2 mps 746 mmHg 55%
    19:00 +26°C° 0 mm 2 mps 746 mmHg 61%
    20:00 +25°C° 0 mm 2 mps 746 mmHg 65%
    21:00 +23°C° 0 mm 1 mps 746 mmHg 69%
    22:00 +22°C° 0 mm 1 mps 747 mmHg 73%
    23:00 +22°C° 0 mm 1 mps 747 mmHg 77%

    27 July, Friday

    Time Temperature Precipitation Wind Pressure Humidity
    00:00 +21°C° 0 mm 1 mps 747 mmHg 81%
    01:00 +20°C° 0 mm 1 mps 747 mmHg 85%
    02:00 +20°C° 0 mm 1 mps 747 mmHg 88%
    03:00 +20°C° 0 mm 1 mps 747 mmHg 90%
    04:00 +20°C° 0 mm 1 mps 747 mmHg 93%
    05:00 +21°C° 0 mm 1 mps 747 mmHg 88%
    06:00 +22°C° 0 mm 1 mps 747 mmHg 84%
    07:00 +23°C° 0 mm 1 mps 747 mmHg 80%
    08:00 +25°C° 0.1 mm 2 mps 747 mmHg 75%
    09:00 +26°C° 0.1 mm 2 mps 747 mmHg 70%
    10:00 +27°C° 0.1 mm 2 mps 746 mmHg 64%
    11:00 +28°C° 0.1 mm 2 mps 746 mmHg 61%
    12:00 +29°C° 0.1 mm 2 mps 746 mmHg 57%
    13:00 +30°C° 0.1 mm 2 mps 746 mmHg 54%
    14:00 +30°C° 0.2 mm 2 mps 745 mmHg 54%
    15:00 +30°C° 0.2 mm 2 mps 745 mmHg 55%
    16:00 +30°C° 0.2 mm 2 mps 745 mmHg 55%
    17:00 +29°C° 0.1 mm 2 mps 745 mmHg 60%
    18:00 +28°C° 0.1 mm 1 mps 745 mmHg 64%
    19:00 +27°C° 0.1 mm 1 mps 745 mmHg 69%
    20:00 +26°C° 0.1 mm 1 mps 745 mmHg 71%
    21:00 +25°C° 0.1 mm 1 mps 745 mmHg 73%
    22:00 +24°C° 0.1 mm 1 mps 745 mmHg 76%
    23:00 +23°C° 0.3 mm 1 mps 745 mmHg 78%
    Show more